SCCI

Punta Arenas/ Presidente Carlos Ibáñez del Campo International Airport

Airport
ICAO code
SCCI
IATA Code
PUQ
Summary
ICAO Region
CARSAM
ICAO Territory
Location

Punta Arenas, Magallanes y Antártica Chilena

Serving
Punta Arenas
Elevation
139 ft
Coordinates
53° 0' 12" S , 70° 51' 12" W
KCC
Metar
Observation
SCCI 050500Z AUTO 28029G39KT CAVOK 09/04 Q0989
Station
Punta Arenas
Date/Time
2023-02-05 05:00:00
Wind direction
280°
Wind speed
29 kts
Lowest cloud amount
clouds and visibility OK
Temperature
9°C
Dew point
4°C
Humidity
70%
QNH
989 hPa
Weather condition
n/a

Description

International airport serving Punta Arenas.

Climatology

Cold Semi-arid climate (Köppen climate classification BSk)

Runways

Designator Length Width Surface Rops
1/19 1678 45 ASP No/No
12/30 2400 45 ASP No/No
7/25 2790 45 ASP No/No

Airport map

Aerial View

SKYbrary Partners:

Safety knowledge contributed by: